20:17
Airports
History
Links
Donate
Help keep this website running!
PayPal
Bitcoin
This page is community maintained. The information is intended for PC simulator navigation or reference.
Always use approved charts for navigation.
SSCV
Capivari
Capivari (SSCV)
Capivari do Sul, Rio Grande do Sul, Brazil (95552)
4
Lat/Lng:30° 8' 5" S / 50° 30' 31" W
-30.134722 / -50.508611
Elevation:14'ft / 4mMSL
ID / ICAO:SSCV
Runways:1
Longest:10-28
Grass 644m / 2,112ft
Nearby Weather20:00 GMT 2018-02-23
Nearby weather at SBCO, Canoas located 40.2 nautical miles from SSCV
Altimeter: 29.97
Visibility: 6.2 statute miles
Wind: 11 knots (from 130°)
Temp: 28°c / 82°f
Humidity: 54.6%

METAR: SBCO 232000Z 13011KT 9999 FEW045 28/18 Q1015

(Powered by phpweather)
Runway 10 / 28
Dimensions:643.7 x 18m 2112' x 59'ft
Surface:Grass
Runway 10 [A]Runway 28 [B]
Heading:082°TH 262°TH
Lat:
Lng:
30° 8' 6.32"S
50° 30' 43.06"W
30° 8' 3.68"S
50° 30' 18.94"W
User Notes and Comments
30° 8' 5" S / 50° 30' 31" W
Distance To
Airport ID:
Nearby Airports
4 Osorio 22.3 NM
SSOS NE 43°
4 Aerolis 28.2 NM
SIQI S 175°
4 Capao da Canoa 38.1 NM
SSKK NE 47°
4 Solidao 38.6 NM
SNPV S 184°
(C) Canoas 40.2 NM
SBCO ( WX ) WNW 288°
4 Belem Novo 40.4 NM
SSBN W 264°
(C) Salgado Filho 40.8 NM
SBPA ( WX ) WNW 283°
VFR Chart
Flight Planning at SkyVector.com